星链-30498 (STARLINK-30498 )

导读

STARLINK-30498是美国太空探索技术公司Starlink星链互联网卫星星座的一员,于2023年9月30日从美国发射升空,属于星链星座第二代组网卫星。该卫星主要承担提供全球高速互联网接入服务的任务,补网增强星链星座覆盖能力,目前已进入近地轨道正常运行。

Basic Information
目录编号:
57971
目录名称:
STARLINK-30498
国际标识:
2023-151H
轨道中心:
EARTH
卫星名称:
星链-30498
卫星全名:
星链-30498 (STARLINK-30498 )
卫星状态:
在轨 (已飞行1070 天)
发射日期:
2023-09-30 UTC
国别 :
美国 (US)
星等 :
--
Orbit Information
数据来源 国际轨道数据
星历时间: 2026-09-04T04:19:43+0800
15小时前
查看轨道信息
半长轴: 6861.259km
偏心率: 0.0001324
轨道倾角: 43.005°
近地点辐角 256.031°
升交点赤经 49.820°
平近点角 104.040°
近地点: 482.213km
远地点: 484.031km
周期: 94.268分钟
每日圈数: 15.275558
Detailed Information
固有亮度:
5
最大亮度:
0.3
卫星平台:
Starlink v2.0 mini
覆盖范围:
全球
运营商:
太空探索技术公司
运营商所在国:
美国
制造商(研发单位):
太空探索技术公司
制造商所在国:
美国
使用方式:
暂无
Satellite Introduction
星链(Starlink)计划是由太空探索技术公司(SpaceX)提出的一个巨型低轨卫星互联网星座项目,计划在2019年至2024年间在太空搭建由约1.2万颗卫星组成的“星链”网络,其中1584颗将部署在地球上空550千米处的近地轨道,并从2020年开始工作。该卫星仍在工作。
2D Orbit Map
3D Orbit Map
Orbit Altitude Analysis Chart
Orbit Inclination Analysis Chart
Orbit Comprehensive Analysis Chart
View Comprehensive Chart
Conjunction Data List
Event ID Objects TCA Miss Dist (km) Collision Risk Probability Collision Risk Index (CRI) Action
CDM_260906-152205-797106-716821
2026-09-06T
15:22:29+0000
0.893 km
远距离
1.121544E-5 中风险 0.56
CDM_260906-043305-797106-379021
2026-09-06T
04:33:39+0000
1.413 km
极远距离
4.634127E-6 低风险 0.48
CDM_260906-144505-797106-379021
2026-09-06T
14:45:40+0000
1.934 km
极远距离
1.84924E-6 低风险 0.4
CDM_260906-060705-797106-379021
2026-09-06T
06:07:49+0000
2.072 km
极远距离
1.566011E-6 低风险 0.39
CDM_260906-213705-797106-647121
2026-09-06T
21:37:40+0000
1.824 km
极远距离
1.503444E-6 低风险 0.39
CDM_260906-130105-797106-716821
2026-09-06T
13:01:15+0000
1.829 km
极远距离
1.171703E-6 低风险 0.36
CDM_260906-165605-797106-716821
2026-09-06T
16:56:38+0000
1.993 km
极远距离
9.556443E-7 极低风险 0.35
CDM_260906-161905-797106-379021
2026-09-06T
16:19:49+0000
2.715 km
极远距离
9.505664E-7 极低风险 0.35